Regional Weather Roundup
Issued by NWS Wakefield, VA

Home | Current Version | Previous Version | Graphics & Text | Print | Product List | Glossary On
Versions: 1 2 3 4 5 6 7 8 9 10 11 12 13 14 15 16 17 18 19 20 21 22 23 24 25 26 27
000
ASUS41 KAKQ 291415
RWRAKQ

REGIONAL WEATHER ROUNDUP
NATIONAL WEATHER SERVICE WAKEFIELD VA
1000 AM EDT MON AUG 29 2016

Note: "fair" indicates few or no clouds below 12,000 feet with no
significant weather and/or obstructions to visibility. * = Denotes
station may not report precipitation (e.g., rain,snow,etc.),
thunder or fog.

VAZ042-051-052>054-056-291500-
NORTHERN VIRGINIA

CITY           SKY/WX    TMP DP  RH WIND       PRES   REMARKS
WASH NATIONAL  PTSUNNY   82  69  64 NE7       30.17F
DULLES         MOSUNNY   80  66  62 N5        30.18F
FORT BELVOIR   MOSUNNY   82  68  63 VRB1      30.17S
QUANTICO       MOSUNNY   79  69  71 SE3       30.19R
FREDERICKSBRG* SUNNY     81  71  71 CALM      30.17S
STAFFORD*      SUNNY     80  68  67 W3        30.22S
WARRENTON      SUNNY     81  65  59 CALM      30.19S
CULPEPER*      MOSUNNY   79  70  73 CALM      30.20S
MANASSAS*      SUNNY     81  68  65 CALM      30.18S
LEESBURG*      SUNNY     81  72  74 CALM      30.20S
WINCHESTER     SUNNY     79  66  65 CALM      30.21S
FRONT ROYAL*   FAIR      77  68  73 CALM      30.21S
LURAY*         FAIR      77  68  73 CALM      30.22S
$$

VAZ048-049-060>072-079>083-291500-
CENTRAL AND SOUTH CENTRAL VIRGINIA

CITY           SKY/WX    TMP DP  RH WIND       PRES   REMARKS
RICHMOND       PTSUNNY   79  66  64 NE9       30.17S
CHESTERFIELD*  FAIR      81  57  44 E5        30.19R
PETERSBURG*    SUNNY     82  66  58 NE9       30.18S
HANOVER        SUNNY     78  65  63 N5        30.19S
TAPPAHANNOCK*  SUNNY     79  71  76 N6        30.18S
QUINTON*       FAIR      77  70  77 N8        30.17S
CHARLOTTSVILLE SUNNY     80  68  66 NE3       30.19R
GORDONSVILLE*  FAIR      81  72  74 CALM      30.18R
ORANGE*        NOT AVBL
LOUISA*        SUNNY     82  73  74 N5        30.18R
BUMPASS*       FAIR      78  72  81 CALM      30.18S
FARMVILLE*     CLOUDY    80  70  70 NE3       30.17R
CREWE*         FAIR      78  72  83 N7        30.18R
FORT PICKETT*  NOT AVBL
CHASE CITY*    FAIR      78  72  82 N5        30.18R
CLARKSVILLE*   FAIR      77  70  78 CALM      30.18R
SOUTH HILL*    CLOUDY    76  70  80 N8        30.23R
LAWRENCEVILLE* FAIR      77  69  77 NE5       30.17R
EMPORIA*       MOSUNNY   77  70  78 NW6       30.17S
$$

VAZ088>098-291500-
SOUTHEAST VIRGINIA

CITY           SKY/WX    TMP DP  RH WIND       PRES   REMARKS
NORFOLK        CLOUDY    79  74  84 NE13      30.13R
VIRGINIA BEACH CLOUDY    86  73  65 NE8G22    30.12R
NORFOLK NAVAL  PTSUNNY   82  73  74 NE10      30.15R
WEST POINT*    SUNNY     80  69  69 N6        30.19R
SALUDA*        FAIR      79  70  75 N6        30.16S
NEWPORT NEWS   CLOUDY    80  73  79 N8        30.16R
LANGLEY AFB    PTSUNNY   80  73  80 NE9       30.14S
FORT EUSTIS    MOSUNNY   84  73  69 NE8       30.14R
WILLIAMSBURG*  SUNNY     82  73  74 N7        30.17R
HR EXEC AP*    FAIR      82  73  74 NE6       30.16R
FRANKLIN*      CLOUDY    81  72  75 NE7       30.15R
US460-WAKEFLD  MOSUNNY   78  71  79 VRB6      30.16R
$$

VAZ020-022-025-037-045-291500-
WEST CENTRAL AND SOUTHWEST VIRGINIA

CITY           SKY/WX    TMP DP  RH WIND       PRES   REMARKS
STAUNTON*      SUNNY     74  66  75 CALM      30.25S
WAYNESBORO*    FAIR      75  65  71 CALM      30.24S
HOT SPRINGS VA SUNNY     72  62  71 NW7       30.34R
LYNCHBURG      SUNNY     79  66  64 CALM      30.21S
DANVILLE       SUNNY     79  69  71 NE5       30.19R
SOUTH BOSTON*  FAIR      80  72  77 N7        30.18R
MARTINSVILLE   SUNNY     78  68  71 NW3       30.23R
ROANOKE        MOSUNNY   77  65  66 CALM      30.23S
BLACKSBURG     SUNNY     72  66  81 CALM      30.30S
DUBLIN*        SUNNY     75  66  75 CALM      30.29S
MARION*        SUNNY     75  67  74 CALM      30.32R
HILLSVILLE*    SUNNY     69  66  91 CALM      30.28S
RICHLANDS*     FAIR      74  65  72 E3        30.31R
WISE*          SUNNY     77  54  44 CALM      30.31R
ABINGDON*      SUNNY     78  66  67 SE5       30.27R
$$

MDZ021>025-VAZ099-100-291500-
SOUTHERN MARYLAND AND THE DELMARVA PENINSULA

CITY           SKY/WX    TMP DP  RH WIND       PRES   REMARKS
PATUXENT RIVER CLOUDY    80  67  64 N6        30.16S
BAY BRIDGE APT MOSUNNY   79  70  73 W5        30.16F
LEONARDTOWN    SUNNY     77  64  65 N5        30.19S
DOVER          SUNNY     80  69  68 W5        30.15S
GEORGETOWN     PTSUNNY   76  68  76 NW5       30.17S
EASTON         MOSUNNY   81  75  83 CALM      30.21R
CAMBRIDGE      MOSUNNY   77  70  78 N6        30.16F
SALISBURY      CLOUDY    76  69  79 CALM      30.16S
OCEAN CITY     CLOUDY    81  70  69 NE6       30.16S
WALLOPS ISLAND PTSUNNY   78  57  48 N5        30.16R
ACCOMACK*      MOSUNNY   78  69  73 N5        30.16R
$$

NCZ012>017-030>032-291500-
NORTH CENTRAL AND EASTERN NORTH CAROLINA

CITY           SKY/WX    TMP DP  RH WIND       PRES   REMARKS
ROANOKE RAPIDS FAIR      77  70  78 N7        30.16R
RALEIGH        PTSUNNY   78  69  73 NE9       30.16S
ELIZABETH CITY CLOUDY    82  75  79 N10       30.11S
AHOSKIE*       PTSUNNY   80  74  80 N6        30.14S
EDENTON*       CLOUDY    82  79  92 NE6       30.12S
CURRITUCK*     HVY RAIN  82  76  82 NE7       30.13R
KILL DEVIL HLS CLOUDY    85  80  86 NE6       30.09S HX  98
MANTEO         CLOUDY    83  76  80 NE13      30.10S
CAPE HATTERAS  MOSUNNY   83  75  77 NE7       30.08R
TARBORO*       CLOUDY    80  73  80 N7        30.15R
GOLDSBORO      CLOUDY    76  76 100 N8        30.12R
WASHINGTON     CLOUDY    76  75  95 N7        30.12R
GREENVILLE     CLOUDY    77  75  94 N8        30.14R
NEW BERN       PTSUNNY   81  75  82 N3        30.11R
WILMINGTON     MOSUNNY   82  75  79 NE6       30.09S
$$

VAZ048-291500-
ELSEWHERE

CITY           SKY/WX    TMP DP  RH WIND       PRES   REMARKS
HARRISBURG PA  MOSUNNY   81  69  67 NW8       30.18S
BALTIMORE      PTSUNNY   80  67  64 W6        30.16F
ANNAPOLIS      MOSUNNY   80  70  71 N5        30.16F
ANDREWS AFB    MOSUNNY   81  68  64 VRB1      30.17S
PHILADELPHIA   PTSUNNY   81  66  60 VRB5      30.15S
HENDERSON NC   MOSUNNY   71  67  86 NE5       30.19R
GREENSBORO     PTSUNNY   79  67  66 NE8       30.19R
ROCKY MOUNT    CLOUDY    77  73  87 NE7       30.14S
$$

VAZ100-291500-
MARINE

STATION/POSITION TIME  TEMP    WIND        PRES    WAVE   SWELL
                       AIR SEA DIR/SP/G            HT/PER HT/PER
                 (UTC) (F)     (DEG/KT/KT) (MB)    (FT/S) (FT/S)
CAPE MAY NJ      1300   79 74  310/  6/  7 1020.7S
LEWES DE         1300   75 76  330/  2/  3 1021.2R
OCEAN-CITY-INLET 1300   75 76   10/  5/  6 1021.5R
WACHAPREAGUE VA  1300   75 79   10/  3/  5 1020.7R
THOMAS POINT MD  1400   77 83  310/  2/  3 1022.8F
GOOSES REEF MD   1400   78 82  340/  6/  8 1022.3R   0
COVE POINT MD    1300   76     350/  8/ 10 1022.0R
SOLOMONS ISLAND  1300   77 84  340/  6/  8   N/A
BISHOPS HEAD MD  1300   76 80   10/  5/  8 1021.8R
PINEY POINT MD   1300           10/  7/  8   N/A
POTOMAC MD       1400   78 83   50/  8/ 10 1020.5R   0
CAMBRIDGE MD     1300   75 84  360/  2/  3 1020.7R
LEWISETTA VA     1300   78 83   30/  6/  7 1021.1R
RAPPAHANNOCK LGT 1300           40/  8/  9 1021.2R
STINGRAY PT      1400   79 83  330/  8/ 12 1022.0R   1/ 2
YORK RVR RNG VA  1300   78      50/ 12/ 14 1020.1R
YORKTOWN VA      1300   76 83  320/  2/  5 1020.2R
JAMESTOWN VA     1400   78 85   20/  4/  8   N/A     0
DOMINION TERM VA 1300   79      60/  8/ 10 1020.4R
KIPTOPEKE VA     1300      80   60/  8/ 12   N/A
CHES BAY BRIDGE  1300   77 79   30/ 11/ 12 1020.0R
CAPE HENRY VA    1300   78      40/ 11/ 13   N/A
WILLOUBY STN VA  1300   78      50/  9/ 10   N/A
CAPE HENRY BUOY  1312      80                N/A     3/ 6   2/13
1ST LANDING BUOY 1400   78 76   70/ 12/ 14 1020.3R   2/ 3
CAPE CHARLES BUO 1326      79                N/A     3/14   2/14
OFFSHORE WE BUOY 1321      80                N/A     4/13   2/13
64NM E OF VA BCH 1350   80 81   40/ 16/ 17 1019.2R   4/ 8   3/ 8
DUCK PIER NC     1300   79 78   60/  8/  8 1018.8R
44100 DUCK FRF   1305      80                N/A     4/ 8   2/14
44056 DUCK FRF   1311      78                N/A     4/14   2/14
OREGON INLET NC  1300   80 80   20/  9/ 11 1018.8R
HATTERAS NC      1300   82 82   30/  8/ 11 1018.0R
DIAMOND SHLS NC  1350   83 84   60/ 16/ 17 1018.0R   6/ 8   5/ 8
CAPE LOOKOUT NC  1400   82      30/ 13/ 16 1018.0S
$$




USA.gov is the U.S. government's official web portal to all federal, state and local government web resources and services.